Вернуться в каталог

FENGYUN 1C DEB

LostPO
NORAD 31635·DEBRIS·🇨🇳 China

Запущен May 10, 1999 с Taiyuan Satellite Launch Center

Loading…

Ближайшие Пролёты (ближайшие 24 часа)

TLE

УстаревшееSource: Space-Track

Эпоха: Dec 24, 2020, 01:26 UTC

1 31635U 99025CAR 20359.05993472  .00001024  00000-0  38102-3 0  9995
2 31635  99.4219  78.4405 0053400 192.8800 167.1021 14.33740113710678

Отслеживайте FENGYUN 1C DEB в реальном времени с AllMySat

Download on the App Store